HST 1 20580U 90037B 26262.06053281 .00004982 00000+0 15075-3 0 9990 2 20580 28.4729 158.5121 0001930 104.6713 255.4097 15.31690777802971 POLAR 1 23802U 96013A 26261.23665666 .00000151 00000+0 00000+0 0 9996 2 23802 79.9864 225.9326 6565887 205.8914 96.3393 1.29845729146060 SWAS 1 25560U 98071A 26262.88559590 .00002291 00000+0 14663-3 0 9996 2 25560 69.8974 343.2151 0002909 125.3792 234.7644 15.10123112511566 CXO 1 25867U 99040B 26264.57838639 .00000964 00000+0 00000+0 0 9996 2 25867 57.4713 114.1840 7687429 309.3021 0.4302 0.37796833 17684 XMM-NEWTON 1 25989U 99066A 26263.09408509 .00000133 00000+0 00000+0 0 9992 2 25989 63.9890 281.7554 4648505 63.1920 0.1280 0.50125912 23488 TERRA 1 25994U 99068A 26262.94377580 .00000185 00000+0 46496-4 0 9998 2 25994 97.9362 308.6897 0001026 316.6543 166.1890 14.61162482423448 TIMED 1 26998U 01055B 26262.40558951 .00000822 00000+0 77869-4 0 9992 2 26998 74.0678 45.2811 0001733 231.8515 128.2514 14.95463014344908 CORIOLIS 1 27640U 03001A 26262.97178206 .00000040 00000+0 39631-4 0 9990 2 27640 98.7172 268.4277 0013037 302.7517 57.2402 14.19967039227673 SORCE 1 27651U 03004A 26262.89843926 .00001793 00000+0 13758-3 0 9991 2 27651 39.9905 81.1263 0017282 7.5846 352.5207 15.04128225286166 MOST 1 27843U 03031D 26262.96473721 .00000029 00000+0 33243-4 0 9997 2 27843 98.7086 269.3835 0009512 345.4004 14.6897 14.21338419204172 SCISAT 1 1 27858U 03036A 26262.89903459 .00000295 00000+0 42268-4 0 9998 2 27858 73.9324 343.1469 0006939 14.1618 345.9752 14.81541737245476 SWIFT 1 28485U 04047A 26262.94494689 .00157352 00000+0 70289-3 0 9994 2 28485 20.5502 167.9731 0003371 273.4211 86.5852 15.82400899201813 HINODE (SOLAR-B) 1 29479U 06041A 26262.88519139 .00000339 00000+0 66585-4 0 9992 2 29479 98.0550 277.6475 0017156 352.2776 7.8163 14.68724447 68770 SHIJIAN-6 02A (SJ-6 02A) 1 29505U 06046A 26262.91783704 .00003739 00000+0 18817-3 0 9993 2 29505 97.6284 304.7154 0003606 145.9590 214.1875 15.17843723 86633 SHIJIAN-6 02B (SJ-6 02B) 1 29506U 06046B 26262.91396875 .00000337 00000+0 30672-4 0 9998 2 29506 97.6977 291.3152 0015975 111.0056 249.2880 15.01482247 84956 FGRST (GLAST) 1 33053U 08029A 26262.43863565 .00002447 00000+0 83679-4 0 9994 2 33053 25.5821 269.8340 0007953 2.2000 357.8572 15.24369206 10083 SDO 1 36395U 10005A 26262.50427488 -.00000066 00000+0 00000+0 0 9999 2 36395 34.8457 84.9076 0001506 82.9624 270.4923 1.00275014 61000 CRYOSAT 2 1 36508U 10013A 26262.91559720 .00000118 00000+0 28512-4 0 9994 2 36508 92.0270 300.3014 0002305 85.6957 274.4514 14.51901628871825 X-SAT 1 37389U 11015C 26262.93189074 .00000088 00000+0 54753-4 0 9990 2 37389 98.3639 235.4947 0015284 66.2074 294.0707 14.25229204801176 GCOM-W1 (SHIZUKU) 1 38337U 12025A 26262.67030301 .00000273 00000+0 70624-4 0 9996 2 38337 98.2074 201.8118 0001530 85.0910 34.8515 14.57136960762798 NUSTAR 1 38358U 12031A 26263.00003472 .00015214 00000+0 86519-3 0 9993 2 38358 6.0284 42.4924 0006362 80.6068 306.6059 15.09570897 1303 NEOSSAT 1 39089U 13009D 26262.91249735 .00000083 00000+0 43341-4 0 9999 2 39089 98.4228 80.7284 0010375 329.7119 30.3466 14.35854191710338 BRITE-AUSTRIA 1 39091U 13009F 26262.72457591 .00000096 00000+0 47116-4 0 9990 2 39091 98.4048 79.8578 0009442 323.6501 36.4043 14.36572650710625 IRIS 1 39197U 13033A 26262.84127369 .00000580 00000+0 72314-4 0 9990 2 39197 97.9274 101.8158 0024736 12.4560 347.7261 14.86042692714434 HISAKI (SPRINT-A) 1 39253U 13049A 26262.91467589 .00000098 00000+0 48764-4 0 9995 2 39253 29.7186 98.4036 0136421 64.7797 296.6850 13.55551153644288 CASSIOPE 1 39265U 13055A 26262.95689372 .00033134 -68938-6 32686-3 0 9999 2 39265 80.9123 311.0547 0268466 101.3619 261.7906 15.31916446682146 STSAT-3 1 39422U 13066G 26262.91696228 .00001599 00000+0 12255-3 0 9998 2 39422 97.6343 231.3475 0011409 75.7554 284.4938 15.03202332698436 SWARM B 1 39451U 13067A 26262.91342554 .00002052 00000+0 71495-4 0 9998 2 39451 87.7431 313.5520 0003303 85.0288 275.1339 15.29059607697717 SWARM A 1 39452U 13067B 26262.88889343 .00007981 00000+0 13756-3 0 9998 2 39452 87.3355 21.0568 0002521 102.0343 258.1201 15.50850757720923 SWARM C 1 39453U 13067C 26262.88878637 .00008125 00000+0 14005-3 0 9992 2 39453 87.3358 19.6399 0002526 101.7960 258.3585 15.50849853720885 BRITE-CA1 (TORONTO) 1 40020U 14033L 26262.61179648 .00000416 00000+0 70281-4 0 9999 2 40020 97.9862 29.8689 0077788 335.5571 24.1956 14.72817661656116 OCO 2 1 40059U 14035A 26262.91896018 .00000237 00000+0 62711-4 0 9993 2 40059 98.2074 202.7899 0001609 75.7903 284.3474 14.57092499649847 BRITE-PL2 (HEWELIUSZ) 1 40119U 14049B 26262.56145318 .00000789 00000+0 77727-4 0 9991 2 40119 97.9169 15.3445 0014499 151.5260 208.6756 14.94868370655546 MMS 1 1 40482U 15011A 26263.00003472 -.00001970 00000+0 00000+0 0 9997 2 40482 72.8961 347.7230 8250560 169.4104 250.5868 0.28336459 1397 MMS 2 1 40483U 15011B 26263.00003472 -.00001971 00000+0 00000+0 0 9999 2 40483 72.9005 347.7218 8253405 169.4118 250.5645 0.28336435 1397 MMS 3 1 40484U 15011C 26263.00003472 -.00001971 00000+0 00000+0 0 9990 2 40484 72.9008 347.7341 8251863 169.4228 250.5299 0.28338554 1395 MMS 4 1 40485U 15011D 26263.00003472 -.00001971 00000+0 00000+0 0 9991 2 40485 72.8944 347.7180 8251942 169.4327 250.5247 0.28338514 1392 ASTROSAT 1 40930U 15052A 26262.87511510 .00001340 00000+0 81043-4 0 9992 2 40930 5.9955 193.7034 0008409 304.6266 55.3069 14.82648427593906 DAMPE 1 41173U 15078A 26262.94550230 .00000759 00000+0 27910-4 0 9996 2 41173 97.4607 268.9125 0013684 97.7907 262.4888 15.30985832599044 PISAT 1 41784U 16059B 26261.93408832 .00000591 00000+0 10799-3 0 9992 2 41784 97.8252 258.3977 0027454 265.9754 93.8313 14.69129661533508 HXMT (HUIYAN) 1 42758U 17034A 26262.76826736 .00003181 00000+0 15823-3 0 9998 2 42758 43.0152 16.1035 0030903 23.4397 336.7853 15.19165140512042 FLYING LAPTOP 1 42831U 17042G 26262.95654352 .00001743 00000+0 13851-3 0 9994 2 42831 97.5016 55.1077 0017059 155.5510 204.6528 15.01609404500672 ZHANGHENG 1-01 (CSES-1) 1 43194U 18015C 26262.95051369 .00004524 00000+0 20893-3 0 9991 2 43194 97.6964 70.5468 0013226 310.7974 49.2113 15.20663085479049 SALSAT 1 46495U 20068K 26262.29850250 .00005216 00000+0 17704-3 0 9998 2 46495 97.8891 271.1983 0008675 342.6646 17.4296 15.30970049329753 IXPE 1 49954U 21121A 26263.00003472 .00007917 00000+0 40597-3 0 9994 2 49954 0.2315 320.3473 0006856 72.4732 335.9115 15.11003267 5543 SMILE 1 69123U 26109A 26260.22617252 .00000590 00000+0 00000+0 0 9994 2 69123 70.0141 206.2461 8169204 285.7290 5.5729 0.47508927 381